AO-07 1 7530U 74089B 23337.53354847 -.00000028 00000-0 11691-3 0 9992 2 7530 101.9653 325.4573 0012410 99.3800 14.4088 12.53669802244634 AO-27 1 22825U 93061C 23336.86427974 .00000264 00000-0 11898-3 0 9994 2 22825 98.8194 22.2935 0007448 298.9897 61.0538 14.30389921574401 FO-29 1 24278U 96046B 23337.44012362 .00000071 00000-0 10953-3 0 9997 2 24278 98.5561 293.1133 0349850 338.1637 20.4896 13.53165341348074 ISS 1 25544U 98067A 23337.52021014 .00021640 00000-0 38462-3 0 9992 2 25544 51.6419 209.8257 0000784 18.3680 49.4844 15.50109640428059 SO-50 1 27607U 02058C 23336.82457911 .00003827 00000-0 53734-3 0 9996 2 27607 64.5550 107.6879 0049152 186.7446 173.3003 14.78011918127359 AO-73 1 39444U 13066AE 23336.89092715 .00007674 00000-0 80398-3 0 9993 2 39444 97.6955 295.7569 0053004 75.9105 284.7996 14.88800986540724 XW-2C 1 40906U 15049H 23337.46955715 .00019451 00000-0 62800-3 0 9997 2 40906 97.4913 345.7770 0008178 289.5828 70.4530 15.32132997454265 XW-2D 1 40907U 15049J 23337.47104230 .00024609 00000-0 71431-3 0 9998 2 40907 97.4881 346.9099 0006768 278.7745 81.2732 15.35477511454393 LILACSAT-2 1 40908U 15049K 23337.50705722 .00009302 00000-0 40500-3 0 9992 2 40908 97.5279 340.4111 0012184 327.0919 32.9558 15.22380626453530 XW-2E 1 40909U 15049L 23337.50570016 .00084391 00000-0 11969-2 0 9996 2 40909 97.4380 355.8411 0003978 199.0880 161.0226 15.56155975455296 XW-2F 1 40910U 15049M 23337.52344875 .00083132 00000-0 12244-2 0 9991 2 40910 97.4484 355.1175 0004412 208.2159 151.8857 15.55129012455029 XW-2B 1 40911U 15049N 23337.49725375 .00024227 00000-0 71115-3 0 9999 2 40911 97.4859 347.2523 0006810 280.9607 79.0870 15.35127788454272 IO-86 1 40931U 15052B 23337.40314487 .00001702 00000-0 14444-3 0 9999 2 40931 6.0012 318.3939 0012912 174.6405 185.3862 14.77506852442419 LO-87 1 41557U 16033B 23294.57261523 .13570584 25586-5 20126-3 0 9994 2 41557 97.3596 50.5245 0012741 279.5777 80.4087 16.47966609413529 CAS-2T 1 41847U 16066G 23336.80709552 .00002370 00000-0 35515-3 0 9990 2 41847 98.4861 44.4643 0358053 51.3062 311.9580 14.40412249371074 EO-88 1 42017U 17008BX 23199.44167461 .08967960 24048-5 93873-3 0 9998 2 42017 97.1901 272.9585 0015059 261.6732 98.2859 16.37376287358454 CAS-4B 1 42759U 17034B 23337.22999384 .00013602 00000-0 60268-3 0 9993 2 42759 43.0129 253.4495 0010177 129.0904 231.0852 15.21459688357343 CAS-4A 1 42761U 17034D 23337.24393221 .00014160 00000-0 62576-3 0 9990 2 42761 43.0133 251.8614 0010732 131.3428 228.8346 15.21519304357355 AO-91 1 43017U 17073E 23336.63085232 .00011896 00000-0 79283-3 0 9996 2 43017 97.6034 214.3869 0221993 231.5347 126.5770 14.89220020326221 AO-92 1 43137U 18004AC 23336.78060055 .00162305 00000-0 12558-2 0 9999 2 43137 97.3080 59.9152 0003452 239.5384 120.5538 15.71380376328510 PICSAT 1 43132U 18004X 23274.90669177 .16535587 25409-5 24982-3 0 9992 2 43132 97.2902 3.7671 0010678 260.9850 99.0246 16.48076850319334 PO-101 1 43678U 18084H 23337.46164677 .00002540 00000-0 24256-3 0 9991 2 43678 98.0454 125.1936 0008751 328.8088 31.2610 14.94210721277533 QO-100 1 43700U 18090A 23336.90473222 .00000155 00000-0 00000-0 0 9999 2 43700 0.0185 316.3539 0001920 327.6004 139.0316 1.00271517 18370 JO-97 1 43803U 18099AX 23336.79728873 .00011489 00000-0 84690-3 0 9996 2 43803 97.5486 35.1659 0009983 255.6895 104.3222 15.03429628273003 FO-99 1 43937U 19003F 23313.54107761 .16492241 25339-5 26604-3 0 9999 2 43937 97.0315 342.1459 0005268 231.7168 128.3663 16.48231493268837 TO-108 1 44881U 19093C 23337.47642811 .00002123 00000-0 26711-3 0 9996 2 44881 97.8487 52.9749 0013321 243.3252 116.6598 14.83047498213883 RS-44 1 44909U 19096E 23336.78242712 .00000030 00000-0 69341-4 0 9991 2 44909 82.5227 235.9071 0217845 152.5377 208.7439 12.79724169183720 AO-109 1 47311U 21002C 23337.41784068 .00071259 00000-0 10709-2 0 9990 2 47311 60.6749 122.0287 0023976 38.3507 321.9294 15.54063576160442 UVSQ-SAT 1 47438U 21006AB 23336.71204250 .00030640 00000-0 99623-3 0 9998 2 47438 97.3607 31.9412 0007829 196.6019 163.4967 15.31814304158378 CSS 1 48274U 21035A 23337.29422234 .00013041 00000-0 14163-3 0 9999 2 48274 41.4704 206.0877 0007838 267.6676 92.3266 15.63232647148272 HO-113 1 50466U 21131B 23337.47551976 .00001234 00000-0 41228-3 0 9991 2 50466 98.5428 58.4376 0004118 9.8115 350.3152 14.39225605101705 Tevel-1 1 51013U 22002AF 23337.46257273 .00040966 00000-0 11914-2 0 9993 2 51013 97.4111 44.0379 0005817 4.5719 355.5576 15.35313768104631 Tevel-7 1 51062U 22002CG 23337.47124036 .00041910 00000-0 12174-2 0 9997 2 51062 97.4131 44.1836 0005948 2.4479 357.6792 15.35344890104634 Tevel-4 1 51063U 22002CH 23337.42049634 .00041614 00000-0 12134-2 0 9990 2 51063 97.4129 44.0921 0005866 3.1134 357.0145 15.35227782104626 Tevel-2 1 51069U 22002CP 23337.38212607 .00039565 00000-0 11478-2 0 9995 2 51069 97.4116 44.0143 0005943 4.9835 355.1467 15.35399003104629 HADES 1 51080U 22002DA 23337.01118114 .00042963 00000-0 10159-2 0 9997 2 51080 97.4414 49.2661 0008033 21.2852 338.8728 15.41664610104779 EASAT-2 1 51081U 22002DB 23336.44894432 .00171390 00000-0 39187-2 0 9997 2 51081 97.4396 48.7194 0007954 24.0702 336.0915 15.42136069104692 Tevel-3 1 50988U 22002E 23337.44644495 .00038834 00000-0 11272-2 0 9995 2 50988 97.4118 44.1116 0006024 5.0797 355.0506 15.35385213104633 Tevel-8 1 50989U 22002F 23337.40825181 .00042480 00000-0 12357-2 0 9992 2 50989 97.4137 44.1502 0005948 2.6190 357.5084 15.35297094104624 Tevel-5 1 50998U 22002Q 23337.40758128 .00044475 00000-0 12337-2 0 9992 2 50998 97.4114 44.7098 0006723 355.3783 4.7398 15.36769770104673 Tevel-6 1 50999U 22002R 23337.40672793 .00044779 00000-0 12427-2 0 9993 2 50999 97.4112 44.6985 0006699 355.0851 5.0326 15.36754149104670 TO-108 1 54684U 22167C 23337.46261955 .00020668 00000-0 96640-3 0 9991 2 54684 97.5828 114.7320 0012711 109.6566 250.6041 15.19730602 54338 INSPIRE-SAT 7 1 56211U 23054AK 23337.13860915 .00027765 00000-0 85585-3 0 9991 2 56211 97.3861 231.1043 0013438 123.5640 236.6887 15.33482095 35991 HADES-D 1 58294U 23174AQ 23336.90379846 .00013185 00000-0 71289-3 0 9996 2 58294 97.4815 49.4965 0010521 191.0989 169.0013 15.14757347 3802 YUZGU 8 1 53306U 98067TR 23025.79167360 .07011754 12129-4 11372-2 0 9998 2 53306 51.6063 292.9414 0006142 218.6650 243.8329 16.32721285 29461 YUZGU 12 1 53308U 98067TT 23029.07738038 .12328418 12448-4 55907-3 0 9992 2 53308 51.6129 276.0899 0007051 254.5007 105.5243 16.42903695 30044 YUZGU 5 1 53309U 98067TU 23026.78154543 .07817383 12266-4 25237-2 0 9999 2 53309 51.5369 287.2498 0215129 186.3126 284.9191 16.41937082 29633 YUZGU 9 1 53310U 98067TV 23027.95360578 .07311626 12146-4 11649-2 0 9996 2 53310 51.6161 282.1016 0006762 235.3476 124.6910 16.32881878 29843 TSIOLKOVSKY-RYAZAN 1 1 53311U 98067TW 23023.95662205 .10980964 12291-4 94749-3 0 9990 2 53311 51.6134 301.8850 0005230 218.9303 141.1347 16.38525487 29243 YUZGU 6 1 53312U 98067TX 23027.23010772 .07984851 12172-4 10935-2 0 9999 2 53312 51.6130 285.5123 0006786 228.9660 131.0778 16.34340713 29693 YUZGU 7 1 53313U 98067TY 23026.97308621 .06899054 12108-4 12066-2 0 9998 2 53313 51.6139 286.8007 0007093 224.6880 135.3572 16.31947587 29707 NO-44 1 26931U 01043C 23336.78214457 .00000565 00000-0 24544-3 0 9992 2 26931 67.0500 121.4573 0005738 258.6026 101.4431 14.31058987157706 NO-103 1 44355U 19036S 22110.24609159 .09797144 -77191-5 93620-3 0 9997 2 44355 28.5075 82.7172 0016307 255.7935 104.0877 16.36779689157079 LEDSAT 1 49069U 21073D 23337.17062224 .00012768 00000-0 62423-3 0 9997 2 49069 97.4638 45.4298 0020739 253.1691 106.7268 15.18170396126502 IO-117 1 53106U 22080B 23332.09968023 -.00000003 00000-0 00000-0 0 9991 2 53106 70.1436 262.7414 0008227 151.4978 208.6132 6.42557248 32288 EOS-7 1 55562U 23019A 23337.45191620 .00042326 00000-0 84724-3 0 9999 2 55562 37.1824 43.2995 0001588 280.8770 79.1812 15.45804972 45817 EIRSAT-1 1 99320U 23335.83163194 .00000000 00000-0 00000+0 0 00007 2 99320 97.4530 35.8249 0001272 81.2690 356.0680 15.16281477 03